EW3693 Weather Reports


Display with metric or nautical units.
time (UTC)temp
F
wind
direction
speed
MPH
gust
MPH
rain 1hr
in
rain 24hr
in
rain mn
in
humidity
%
barometer
mb
20260502164026 74 0 4.0 10.0 0.00 0.00 0.00 44 1014.9
20260502163025 75 0 4.0 8.0 0.00 0.00 0.00 46 1015.0
20260502162026 76 0 6.0 11.0 0.00 0.00 0.00 42 1015.1
20260502161024 77 0 8.0 14.0 0.00 0.00 0.00 39 1015.1
20260502152045 78 0 5.0 10.0 0.00 0.00 0.00 40 1015.6
20260502151026 78 0 8.0 14.0 0.00 0.00 0.00 39 1015.7
20260502123029 80 0 8.0 16.0 0.00 0.00 0.00 38 1017.9
20260502122028 80 0 5.0 10.0 0.00 0.00 0.00 40 1017.9
20260502121030 79 0 8.0 15.0 0.00 0.00 0.00 40 1018.1
20260502115028 79 0 8.0 13.0 0.00 0.00 0.00 41 1018.5
20260502114028 79 0 7.0 15.0 0.00 0.00 0.00 41 1018.7
20260502113028 78 0 9.0 18.0 0.00 0.00 0.00 40 1018.8
20260502112028 78 0 10.0 18.0 0.00 0.00 0.00 43 1019.0
20260502111028 79 0 7.0 13.0 0.00 0.00 0.00 42 1019.0
20260502110029 78 0 8.0 18.0 0.00 0.00 0.00 43 1019.3
20260502105029 78 0 9.0 16.0 0.00 0.00 0.00 40 1019.2
20260502104029 78 0 8.0 16.0 0.00 0.00 0.00 41 1019.4
20260502103028 77 0 6.0 11.0 0.00 0.00 0.00 45 1019.5
20260502102028 76 0 7.0 13.0 0.00 0.00 0.00 46 1019.6
20260502101028 77 0 5.0 9.0 0.00 0.00 0.00 47 1019.7
20260502091028 74 0 9.0 14.0 0.00 0.00 0.00 48 1020.4
20260502071027 66 0 2.0 8.0 0.00 0.00 0.00 65 1021.3
20260502070027 65 0 2.0 6.0 0.00 0.00 0.00 66 1021.4
20260502065029 64 0 2.0 5.0 0.00 0.00 0.00 66 1021.4
20260502064047 63 0 2.0 6.0 0.00 0.00 0.00 66 1021.5
20260502063027 62 0 3.0 6.0 0.00 0.00 0.00 67 1021.6
20260502062048 61 0 2.0 5.0 0.00 0.00 0.00 69 1021.7
20260502061028 60 0 1.0 5.0 0.00 0.00 0.00 70 1021.7
20260502060048 58 0.0 0.0 0.00 0.00 0.00 72 1021.8
20260502055028 57 0.0 0.0 0.00 0.00 0.00 75 1021.7
20260502054028 55 0.0 1.0 0.00 0.00 0.00 76 1021.8
20260502053027 54 0.0 0.0 0.00 0.00 0.00 76 1021.8
20260502052027 53 0.0 0.0 0.00 0.00 0.00 77 1021.9
20260502051027 52 0.0 0.0 0.00 0.00 0.00 78 1021.9
20260502050027 50 0.0 0.0 0.00 0.00 0.00 80 1021.9
20260502045024 49 0.0 0.0 0.00 0.00 0.00 82 1022.0
20260502044047 48 0.0 0.0 0.00 0.00 0.00 81 1022.0
20260502043027 47 0.0 0.0 0.00 0.00 0.00 81 1022.1
20260502042027 47 0.0 0.0 0.00 0.00 0.00 80 1022.0
20260502041047 47 0.0 0.0 0.00 0.00 0.00 80 1022.1
20260502040027 47 0.0 0.0 0.00 0.00 0.00 80 1022.2
20260502035027 47 0.0 0.0 0.00 0.00 0.00 80 1022.3
20260502034027 47 0.0 0.0 0.00 0.00 0.00 80 1022.3
20260502033027 47 0.0 0.0 0.00 0.00 0.00 79 1022.3
20260502032027 47 0.0 0.0 0.00 0.00 0.00 79 1022.5
20260502031027 47 0.0 0.0 0.00 0.00 0.00 79 1022.7
20260502030027 47 0.0 0.0 0.00 0.00 0.00 79 1022.8
20260502025027 47 0.0 0.0 0.00 0.00 0.00 79 1022.8
20260502024027 47 0.0 0.0 0.00 0.00 0.00 78 1022.8
20260502023027 47 0.0 0.0 0.00 0.00 0.00 78 1022.9
20260502022027 47 0.0 0.0 0.00 0.00 0.00 77 1023.0
20260502021027 47 0.0 0.0 0.00 0.00 0.00 76 1023.1
20260502020027 47 0.0 0.0 0.00 0.00 0.00 74 1023.2
20260502015047 48 0.0 0.0 0.00 0.00 0.00 73 1023.3
20260502014026 49 0.0 0.0 0.00 0.00 0.00 73 1023.3
20260502013027 49 0.0 0.0 0.00 0.00 0.00 73 1023.4
20260502012026 49 0.0 0.0 0.00 0.00 0.00 73 1023.5
20260502011027 50 0.0 0.0 0.00 0.00 0.00 72 1023.7
20260502010027 50 0.0 0.0 0.00 0.00 0.00 72 1023.7
20260502005027 50 0.0 0.0 0.00 0.00 0.00 71 1024.0
20260502004027 50 0.0 0.0 0.00 0.00 0.00 71 1024.0
20260502003027 50 0.0 0.0 0.00 0.00 0.00 71 1023.9
20260502002026 50 0.0 0.0 0.00 0.00 0.00 71 1024.1
20260502001027 50 0.0 0.0 0.00 0.00 0.00 71 1024.1
20260502000026 51 0.0 0.0 0.00 0.00 0.00 70 1024.1
20260501235046 51 0.0 0.0 0.00 0.00 0.00 70 1024.1
20260501234046 51 0.0 0.0 0.00 0.00 0.00 70 1024.2
20260501233027 51 0.0 0.0 0.00 0.00 0.00 70 1024.3
20260501232026 51 0.0 0.0 0.00 0.00 0.00 70 1024.4
20260501231027 51 0.0 0.0 0.00 0.00 0.00 70 1024.4
20260501230027 51 0.0 0.0 0.00 0.00 0.00 70 1024.5
20260501225026 52 0.0 0.0 0.00 0.00 0.00 70 1024.5
20260501224026 52 0.0 0.0 0.00 0.00 0.00 70 1024.6
20260501223026 52 0.0 0.0 0.00 0.00 0.00 70 1024.5
20260501222046 52 0.0 0.0 0.00 0.00 0.00 70 1024.5
20260501221026 52 0.0 0.0 0.00 0.00 0.00 69 1024.5
20260501220026 53 0.0 0.0 0.00 0.00 0.00 68 1024.6
20260501215026 53 0.0 0.0 0.00 0.00 0.00 68 1024.7
20260501214046 53 0.0 0.0 0.00 0.00 0.00 67 1024.7
20260501213031 54 0.0 0.0 0.00 0.00 0.00 66 1024.8
20260501212030 54 0.0 0.0 0.00 0.00 0.00 66 1024.7
20260501211030 55 0.0 0.0 0.00 0.00 0.00 65 1024.9
20260501210030 55 0.0 0.0 0.00 0.00 0.00 64 1025.1
20260501205030 56 0.0 0.0 0.00 0.00 0.00 62 1025.1
20260501204030 56 0.0 0.0 0.00 0.00 0.00 62 1025.2
20260501203030 57 0.0 0.0 0.00 0.00 0.00 60 1025.2
20260501202030 57 0.0 0.0 0.00 0.00 0.00 60 1025.3
20260501201030 58 0.0 0.0 0.00 0.00 0.00 58 1025.4
20260501200050 59 0.0 0.0 0.00 0.00 0.00 57 1025.4
20260501195030 60 0.0 0.0 0.00 0.00 0.00 57 1025.3
20260501194050 60 0.0 0.0 0.00 0.00 0.00 56 1025.3
20260501193030 61 0.0 0.0 0.00 0.00 0.00 56 1025.3
20260501192030 62 0.0 0.0 0.00 0.00 0.00 53 1025.3
20260501191030 63 0.0 0.0 0.00 0.00 0.00 52 1025.3
20260501190050 64 0.0 0.0 0.00 0.00 0.00 51 1025.2
20260501185030 64 0.0 0.0 0.00 0.00 0.00 49 1025.3
20260501184030 65 0.0 0.0 0.00 0.00 0.00 46 1025.3
20260501183030 66 0.0 0.0 0.00 0.00 0.00 44 1025.3
20260501182030 66 0.0 0.0 0.00 0.00 0.00 43 1025.4
20260501181030 67 135 2.0 4.0 0.00 0.00 0.00 42 1025.3
20260501180030 67 135 1.0 7.0 0.00 0.00 0.00 41 1025.3
20260501175030 68 135 1.0 5.0 0.00 0.00 0.00 40 1025.3
20260501174030 68 135 1.0 3.0 0.00 0.00 0.00 42 1025.4
20260501173050 69 135 2.0 7.0 0.00 0.00 0.00 41 1025.3
20260501172210 69 135 2.0 6.0 0.00 0.00 0.00 39 1025.4